Location: Sweet Grass
(48.9965°N, 111.9649°W)
Time: 13:10:38
(UTC+00:00)

DX 1 - Pass Details

Date: 02 April 2023
Orbit: 615 x 625 km, 98.4° (Epoch: 29 May)

Event Time Altitude Azimuth Distance (km) Brightness Sun altitude
Rises 07:10:50 0° 2° (N) 2,900 ? -36.0°
Reaches altitude 10° 07:13:28 10° 346° (NNW) 1,989 ? -36.0°
Enters shadow 07:14:48 16° 331° (NNW) 1,643 ? -36.0°
